Tiempo cada hora Abadin

Hoy, 19 Abril, Lunes

Tiempo Temperatura Precipitaciones Viento Presión Humedad
00:00 +9°C° 0 mm 1 mps 708 mmHg 68%
01:00 +9°C° 0 mm 1 mps 708 mmHg 67%
02:00 +9°C° 0 mm 1 mps 707 mmHg 66%
03:00 +8°C° 0 mm 0 mps 707 mmHg 67%
04:00 +8°C° 0 mm 0 mps 707 mmHg 67%
05:00 +7°C° 0 mm 0 mps 707 mmHg 68%
06:00 +9°C° 0 mm 1 mps 707 mmHg 66%
07:00 +10°C° 0 mm 1 mps 707 mmHg 64%
08:00 +11°C° 0 mm 1 mps 707 mmHg 61%
09:00 +14°C° 0 mm 1 mps 707 mmHg 54%
10:00 +16°C° 0 mm 1 mps 707 mmHg 46%
11:00 +19°C° 0 mm 1 mps 707 mmHg 39%
12:00 +17°C° 0.1 mm 2 mps 707 mmHg 43%
13:00 +16°C° 0.1 mm 2 mps 707 mmHg 47%
14:00 +16°C° 0.1 mm 2 mps 706 mmHg 52%
15:00 +15°C° 0 mm 1 mps 706 mmHg 56%
16:00 +14°C° 0 mm 1 mps 706 mmHg 60%
17:00 +12°C° 0 mm 1 mps 706 mmHg 65%
18:00 +11°C° 0 mm 1 mps 706 mmHg 72%
19:00 +9°C° 0 mm 1 mps 706 mmHg 79%
20:00 +7°C° 0 mm 0 mps 707 mmHg 86%
21:00 +6°C° 0 mm 0 mps 706 mmHg 86%
22:00 +7°C° 0 mm 1 mps 706 mmHg 87%
23:00 +7°C° 0 mm 1 mps 706 mmHg 87%

Mañana, 20 Abril, Martes

Tiempo Temperatura Precipitaciones Viento Presión Humedad
00:00 +7°C° 0 mm 1 mps 706 mmHg 88%
01:00 +7°C° 0 mm 1 mps 706 mmHg 89%
02:00 +7°C° 0 mm 1 mps 705 mmHg 91%
03:00 +6°C° 0 mm 0 mps 705 mmHg 91%
04:00 +6°C° 0 mm 0 mps 705 mmHg 91%
05:00 +7°C° 0 mm 0 mps 705 mmHg 91%
06:00 +8°C° 0 mm 0 mps 705 mmHg 87%
07:00 +8°C° 0 mm 0 mps 706 mmHg 84%
08:00 +9°C° 0 mm 0 mps 706 mmHg 80%
09:00 +12°C° 0.2 mm 1 mps 706 mmHg 76%
10:00 +13°C° 0.2 mm 1 mps 705 mmHg 73%
11:00 +14°C° 0.2 mm 1 mps 705 mmHg 69%
12:00 +14°C° 0.7 mm 1 mps 705 mmHg 74%
13:00 +14°C° 0.7 mm 1 mps 705 mmHg 78%
14:00 +13°C° 0.7 mm 1 mps 705 mmHg 83%
15:00 +12°C° 0.5 mm 1 mps 705 mmHg 85%
16:00 +12°C° 0.5 mm 1 mps 704 mmHg 87%
17:00 +11°C° 0.5 mm 1 mps 704 mmHg 89%
18:00 +10°C° 0.1 mm 1 mps 705 mmHg 92%
19:00 +9°C° 0.1 mm 1 mps 705 mmHg 94%
20:00 +7°C° 0.1 mm 1 mps 705 mmHg 96%
21:00 +7°C° 0 mm 1 mps 705 mmHg 96%
22:00 +7°C° 0 mm 1 mps 704 mmHg 96%
23:00 +7°C° 0 mm 1 mps 704 mmHg 96%

Pasado mañana, 21 Abril, Miércoles

Tiempo Temperatura Precipitaciones Viento Presión Humedad
00:00 +6°C° 0 mm 1 mps 704 mmHg 97%
01:00 +6°C° 0 mm 1 mps 704 mmHg 97%
02:00 +6°C° 0 mm 1 mps 703 mmHg 97%
03:00 +6°C° 0 mm 1 mps 703 mmHg 97%
04:00 +6°C° 0 mm 1 mps 703 mmHg 97%
05:00 +6°C° 0 mm 1 mps 703 mmHg 96%
06:00 +8°C° 0 mm 1 mps 703 mmHg 92%
07:00 +9°C° 0 mm 1 mps 703 mmHg 87%
08:00 +11°C° 0 mm 1 mps 703 mmHg 82%
09:00 +12°C° 0.3 mm 1 mps 703 mmHg 77%
10:00 +14°C° 0.3 mm 1 mps 703 mmHg 71%
11:00 +15°C° 0.3 mm 2 mps 702 mmHg 66%
12:00 +14°C° 0.6 mm 1 mps 702 mmHg 70%
13:00 +14°C° 0.6 mm 1 mps 702 mmHg 75%
14:00 +13°C° 0.6 mm 1 mps 701 mmHg 80%
15:00 +12°C° 0.5 mm 1 mps 701 mmHg 85%
16:00 +11°C° 0.5 mm 1 mps 701 mmHg 91%
17:00 +10°C° 0.5 mm 1 mps 701 mmHg 96%
18:00 +9°C° 0.3 mm 1 mps 701 mmHg 97%
19:00 +9°C° 0.3 mm 1 mps 701 mmHg 98%
20:00 +9°C° 0.3 mm 1 mps 701 mmHg 99%
21:00 +9°C° 0.2 mm 1 mps 701 mmHg 99%
22:00 +9°C° 0.2 mm 1 mps 701 mmHg 99%
23:00 +9°C° 0.2 mm 1 mps 701 mmHg 99%

22 Abril, Jueves

Tiempo Temperatura Precipitaciones Viento Presión Humedad
00:00 +9°C° 0.1 mm 1 mps 701 mmHg 99%
01:00 +8°C° 0.1 mm 1 mps 701 mmHg 99%
02:00 +8°C° 0.1 mm 1 mps 701 mmHg 99%
03:00 +8°C° 0 mm 1 mps 701 mmHg 99%
04:00 +7°C° 0 mm 0 mps 701 mmHg 98%
05:00 +7°C° 0 mm 0 mps 701 mmHg 98%
06:00 +8°C° 0 mm 0 mps 702 mmHg 93%
07:00 +10°C° 0 mm 0 mps 702 mmHg 87%
08:00 +12°C° 0 mm 0 mps 703 mmHg 81%
09:00 +14°C° 0.1 mm 1 mps 703 mmHg 72%
10:00 +16°C° 0.1 mm 1 mps 703 mmHg 64%
11:00 +18°C° 0.1 mm 1 mps 703 mmHg 55%
12:00 +18°C° 0.3 mm 1 mps 703 mmHg 60%
13:00 +16°C° 0.3 mm 2 mps 703 mmHg 65%
14:00 +16°C° 0.3 mm 2 mps 704 mmHg 70%
15:00 +15°C° 0.2 mm 2 mps 704 mmHg 74%
16:00 +14°C° 0.2 mm 1 mps 704 mmHg 78%
17:00 +14°C° 0.2 mm 1 mps 704 mmHg 82%
18:00 +12°C° 0 mm 1 mps 704 mmHg 87%
19:00 +10°C° 0 mm 1 mps 704 mmHg 93%
20:00 +9°C° 0 mm 1 mps 704 mmHg 98%
21:00 +8°C° 0 mm 1 mps 704 mmHg 98%
22:00 +8°C° 0 mm 1 mps 704 mmHg 97%
23:00 +8°C° 0 mm 1 mps 704 mmHg 97%

23 Abril, Viernes

Tiempo Temperatura Precipitaciones Viento Presión Humedad
00:00 +8°C° 0 mm 1 mps 703 mmHg 97%
01:00 +8°C° 0 mm 1 mps 703 mmHg 97%
02:00 +8°C° 0 mm 1 mps 703 mmHg 97%
03:00 +8°C° 0 mm 1 mps 703 mmHg 96%
04:00 +8°C° 0 mm 1 mps 703 mmHg 95%
05:00 +8°C° 0 mm 1 mps 703 mmHg 94%
06:00 +11°C° 0 mm 1 mps 703 mmHg 84%
07:00 +13°C° 0 mm 1 mps 703 mmHg 74%
08:00 +15°C° 0 mm 1 mps 704 mmHg 64%
09:00 +18°C° 0 mm 1 mps 704 mmHg 58%
10:00 +18°C° 0 mm 2 mps 704 mmHg 51%
11:00 +19°C° 0 mm 2 mps 704 mmHg 45%
12:00 +18°C° 0.2 mm 2 mps 704 mmHg 56%
13:00 +17°C° 0.2 mm 2 mps 703 mmHg 66%
14:00 +15°C° 0.2 mm 2 mps 703 mmHg 77%
15:00 +14°C° 0.5 mm 1 mps 703 mmHg 83%
16:00 +13°C° 0.5 mm 1 mps 704 mmHg 89%
17:00 +11°C° 0.5 mm 0 mps 704 mmHg 95%
18:00 +12°C° 0.7 mm 1 mps 704 mmHg 96%
19:00 +12°C° 0.7 mm 1 mps 704 mmHg 97%
20:00 +11°C° 0.7 mm 1 mps 705 mmHg 98%
21:00 +11°C° 0.2 mm 1 mps 705 mmHg 98%
22:00 +11°C° 0.2 mm 1 mps 705 mmHg 99%
23:00 +11°C° 0.2 mm 1 mps 705 mmHg 99%

24 Abril, Sábado

Tiempo Temperatura Precipitaciones Viento Presión Humedad
00:00 +11°C° 0.1 mm 1 mps 705 mmHg 99%
01:00 +10°C° 0.1 mm 1 mps 705 mmHg 99%
02:00 +10°C° 0.1 mm 1 mps 704 mmHg 99%
03:00 +10°C° 0.2 mm 1 mps 705 mmHg 99%
04:00 +10°C° 0.2 mm 1 mps 705 mmHg 99%
05:00 +10°C° 0.2 mm 1 mps 705 mmHg 98%
06:00 +12°C° 0 mm 1 mps 705 mmHg 92%
07:00 +13°C° 0 mm 1 mps 705 mmHg 86%
08:00 +15°C° 0 mm 1 mps 706 mmHg 80%
09:00 +18°C° 0.3 mm 1 mps 706 mmHg 70%
10:00 +20°C° 0.3 mm 1 mps 706 mmHg 60%
11:00 +21°C° 0.3 mm 2 mps 706 mmHg 50%
12:00 +20°C° 0.2 mm 2 mps 706 mmHg 54%
13:00 +19°C° 0.2 mm 2 mps 706 mmHg 58%
14:00 +19°C° 0.2 mm 2 mps 705 mmHg 62%
15:00 +18°C° 0.2 mm 2 mps 705 mmHg 68%
16:00 +16°C° 0.2 mm 2 mps 705 mmHg 74%
17:00 +15°C° 0.2 mm 2 mps 705 mmHg 80%
18:00 +14°C° 0.1 mm 2 mps 705 mmHg 84%
19:00 +13°C° 0.1 mm 2 mps 705 mmHg 89%
20:00 +10°C° 0.1 mm 2 mps 705 mmHg 94%
21:00 +10°C° 0 mm 2 mps 705 mmHg 94%
22:00 +10°C° 0 mm 2 mps 705 mmHg 95%
23:00 +9°C° 0 mm 2 mps 705 mmHg 96%
Mostrar más

Necesitamos Su Consentimiento

Meteoprog y nuestros Proveedores de Servicios pueden almacenar y acceder a sus datos personales como cookies, identificadores de dispositivo u otras tecnologías similares de su dispositivo y procesar dichos datos para personalizar contenido y anuncios, además de ofrecer funciones de redes sociales y analizar el tráfico.

  • Almacenar y/o acceder a información en su dispositivo

    Se puede almacenar o acceder a cookies, identificadores de dispositivo u otra información de su dispositivo para los fines anteriormente indicados.

  • Anuncios y contenido personalizados, medición de anuncios y contenido, percepciones del público, y desarrollo de productos

    Los anuncios y el contenido pueden personalizarse en base a su perfil. Se pueden añadir más datos para personalizar mejor los anuncios y contenidos. Se puede medir el rendimiento de los anuncios y contenidos. Se puede obtener la percepción sobre el público que ha visto los anuncios y contenidos. Dichos datos pueden usarse para desarrollar o mejorar la experiencia del usuario, sistemas y software.

Al hacer clic en ‘Estoy De Acuerdo’ usted permitirá el uso de las cookies, identificadores de dispositivo, balizas web u otras tecnologías similares indicadas. Su configuración puede cambiarse desde el navegador de su dispositivo.

Para ciertos fines, los intereses legítimos pueden ser considerados por encima del consentimiento. Puede leer más sobre ello en nuestra Política de Privacidad y Cookies.